Weather in Andreykovo

Russia / Smolensk Oblast     55°14′09″N   34°15′25″E
temp.,
°C
wind,
m/s
gust,
m/s
humid.,
%
clouds,
%
prec.,
mm/h
press.,
hPa
HPBL,
m
15 august, mon
mon1500:00+17se22880 0.0 101920
03:00+16se22900 0.0 102013
06:00+16e24885 0.0 102068
09:00+21ese466090 0.0 1020358
12:00+26ese464529 0.0 10201390
15:00+27ese45398 0.0 10191941
18:00+26ese474853 0.0 1018542
21:00+19ese377055 0.0 1019112
16 august, tue
tue1600:00+18ese310757 0.0 1019185
03:00+16e387248 0.0 1019131
06:00+16e3965100 0.0 1019183
09:00+21e595299 0.0 1019391
12:00+25ese6940100 0.0 1019959
15:00+27ese673766 0.0 10181429
18:00+25ese5847100 0.0 1018779
21:00+19e310646 0.0 1019185
17 august, wed
wed1700:00+17e3972100 0.0 1019146
03:00+16ene31077100 0.0 1018178
06:00+15ene3107397 0.0 1018173
09:00+21ene5115797 0.0 1017448
12:00+25ese564687 0.0 1017804
15:00+20ese3664100 0.0 1017203
18:00+22ne2461100 0.0 101683
21:00+21e366499 0.0 1016103
18 august, thu
thu1800:00+18e346543 0.0 101759
03:00+18ene375997 0.0 1017138
06:00+19e3105694 0.0 1017233
09:00+23e59525 0.0 1017392
12:00+28e57385 0.0 10171343
15:00+29e68352 0.0 10172286
18:00+27e59400 0.0 1017705
21:00+19ene49515 0.0 1018135
19 august, fri
fri1900:00+18ne39574 0.0 1018152
03:00+16ene39646 0.0 1018149
06:00+16ene310685 0.0 1018189
09:00+22ene59522 0.0 1018490
12:00+27e68415 0.0 10171097
15:00+28e574099 0.0 10171618
18:00+27ese474620 0.0 1017864
21:00+21ese411675 0.0 1018305